Date,TemperatureHighF,TemperatureAvgF,TemperatureLowF,DewpointHighF,DewpointAvgF,DewpointLowF,HumidityHigh,HumidityAvg,HumidityLow,PressureMaxIn,PressureMinIn,WindSpeedMaxMPH,WindSpeedAvgMPH,GustSpeedMaxMPH,PrecipitationSumIn
2013-1-1,49.0,46.2,42.0,49.0,42.0,28.0,100,87,53,0.00,40.00,3,2,4,1.16
2013-1-2,49.0,43.6,38.0,49.0,41.5,37.0,100,92,83,0.00,40.00,5,2,11,0.43
2013-1-3,47.0,38.7,34.0,37.0,32.2,24.0,97,79,49,0.00,40.00,6,3,10,0.00
2013-1-4,52.0,37.0,26.0,25.0,20.6,13.0,88,56,24,0.00,40.00,7,3,11,0.00
2013-1-5,49.0,36.1,24.0,37.0,24.3,20.0,98,65,35,0.00,40.00,2,2,8,0.04
2013-1-6,47.0,40.1,37.0,39.0,35.3,32.0,94,84,65,0.00,40.00,6,4,15,0.05
2013-1-7,57.0,41.4,29.0,32.0,27.6,25.0,89,61,29,0.00,40.00,5,3,9,0.00
2013-1-8,52.0,43.7,34.0,39.0,32.7,28.0,81,66,53,0.00,40.00,4,2,9,0.00
2013-1-9,64.0,54.8,48.0,52.0,48.4,39.0,92,79,64,0.00,40.00,3,2,6,0.00
2013-1-10,66.0,59.6,55.0,57.0,52.7,51.0,95,78,63,0.00,40.00,4,2,9,0.00
2013-1-11,65.0,61.2,57.0,63.0,61.0,57.0,100,99,92,0.00,40.00,4,2,10,0.48
2013-1-12,72.0,63.4,59.0,64.0,60.8,57.0,100,92,71,0.00,40.00,3,2,7,0.24
2013-1-13,70.0,63.0,59.0,62.0,58.9,57.0,98,87,70,0.00,40.00,3,2,7,0.01
2013-1-14,63.0,57.7,49.0,63.0,57.6,49.0,100,100,98,0.00,40.00,3,2,9,0.99
2013-1-15,62.0,54.8,48.0,62.0,54.8,48.0,100,100,100,0.00,40.00,3,2,10,1.28
2013-1-16,63.0,57.6,53.0,63.0,57.4,53.0,100,99,95,0.00,40.00,4,2,7,1.06
2013-1-17,56.0,48.9,36.0,56.0,48.2,32.0,100,98,86,0.00,40.00,6,2,10,1.39
2013-1-18,59.0,40.6,31.0,31.0,27.0,22.0,90,62,29,0.00,40.00,6,3,9,0.05
2013-1-19,55.0,39.0,30.0,30.0,26.9,23.0,91,66,29,0.00,40.00,3,2,8,0.01
2013-1-20,63.0,43.2,28.0,38.0,31.4,27.0,98,66,37,0.00,40.00,5,3,12,0.00
2013-1-21,56.0,41.1,29.0,33.0,25.9,16.0,94,60,33,0.00,40.00,8,4,14,0.00
2013-1-22,44.0,33.3,26.0,15.0,9.8,6.0,52,38,24,0.00,40.00,9,4,16,0.00
2013-1-23,49.0,36.8,26.0,30.0,18.0,9.0,58,47,34,0.00,40.00,6,3,16,0.00
2013-1-24,53.0,44.0,29.0,40.0,22.3,4.0,78,47,13,0.00,40.00,8,4,16,0.00
2013-1-25,33.0,29.4,27.0,32.0,17.1,4.0,97,65,33,0.00,40.00,5,3,12,0.01
2013-1-26,56.0,41.4,34.0,37.0,33.8,29.0,100,77,44,0.00,40.00,4,2,10,0.08
2013-1-27,50.0,40.9,31.0,33.0,29.7,24.0,84,65,46,0.00,40.00,4,3,13,0.00
2013-1-28,50.0,44.6,40.0,45.0,36.9,29.0,99,75,61,0.00,40.00,3,2,7,0.00
2013-1-29,70.0,54.7,42.0,61.0,51.5,42.0,100,90,63,0.00,40.00,3,2,5,0.13
2013-1-30,65.0,58.0,44.0,64.0,56.7,40.0,100,95,87,0.00,40.00,9,5,22,2.17
2013-1-31,47.0,40.6,32.0,34.0,22.6,19.0,77,50,33,0.00,40.00,9,5,22,0.29
2013-2-1,42.0,33.6,26.0,28.0,12.1,-2.0,77,44,16,0.00,40.00,8,5,15,0.00
2013-2-2,45.0,31.9,19.0,37.0,20.1,0.0,99,67,15,0.00,40.00,4,2,16,0.36
2013-2-3,52.0,40.3,31.0,38.0,30.8,23.0,99,73,36,0.00,40.00,8,5,17,0.36
2013-2-4,49.0,37.6,28.0,30.0,25.7,22.0,88,64,38,0.00,40.00,4,2,7,0.00
2013-2-5,58.0,44.3,32.0,47.0,36.8,27.0,93,76,56,0.00,40.00,4,2,9,0.00
2013-2-6,69.0,52.1,33.0,46.0,34.4,27.0,99,60,21,0.00,40.00,5,2,11,0.00
2013-2-7,50.0,45.8,44.0,45.0,37.1,27.0,95,74,44,0.00,40.00,5,3,11,0.23
2013-2-8,56.0,47.0,38.0,48.0,40.8,28.0,100,81,43,0.00,40.00,9,4,15,0.05
2013-2-9,64.0,44.5,27.0,30.0,25.4,19.0,96,55,20,0.00,40.00,3,2,6,0.01
2013-2-10,57.0,47.2,42.0,46.0,35.3,23.0,100,66,40,0.00,40.00,4,3,11,1.16
2013-2-11,55.0,50.7,47.0,55.0,50.3,47.0,100,99,95,0.00,40.00,3,3,9,1.51
2013-2-12,56.0,47.5,43.0,47.0,39.5,31.0,98,77,39,0.00,40.00,3,2,8,0.21
2013-2-13,49.0,42.9,35.0,45.0,40.2,33.0,99,91,77,0.00,40.00,7,4,17,0.26
2013-2-14,57.0,41.9,31.0,35.0,31.2,29.0,95,70,34,0.00,40.00,6,3,10,0.01
2013-2-15,63.0,43.1,28.0,40.0,32.5,27.0,97,72,32,0.00,40.00,6,3,15,0.01
2013-2-16,42.0,35.5,28.0,33.0,19.5,8.0,82,55,28,0.00,40.00,12,6,19,0.00
2013-2-17,45.0,32.2,22.0,14.0,8.3,3.0,54,38,18,0.00,40.00,7,4,15,0.00
2013-2-18,58.0,38.7,23.0,26.0,20.1,14.0,74,50,26,0.00,40.00,5,2,7,0.00
2013-2-19,54.0,42.6,36.0,44.0,30.1,16.0,99,67,29,0.00,40.00,8,4,20,0.33
2013-2-20,56.0,38.6,29.0,15.0,12.2,1.0,54,36,11,0.00,40.00,7,4,12,0.01
2013-2-21,63.0,44.5,28.0,40.0,19.3,11.0,89,41,15,0.00,40.00,4,3,10,0.07
2013-2-22,42.0,40.0,38.0,41.0,39.0,37.0,99,96,93,0.00,40.00,5,4,14,1.50
2013-2-23,51.0,44.8,40.0,47.0,43.7,40.0,100,96,87,0.00,40.00,4,2,8,0.66
2013-2-24,67.0,49.2,36.0,45.0,37.2,26.0,100,70,24,0.00,40.00,4,2,11,0.01
2013-2-25,51.0,43.6,37.0,38.0,28.3,23.0,96,56,41,0.00,40.00,6,4,17,0.00
2013-2-26,43.0,38.6,35.0,42.0,37.1,34.0,98,95,79,0.00,40.00,6,3,19,1.26
2013-2-27,57.0,45.7,38.0,35.0,32.9,30.0,82,62,41,0.00,40.00,7,4,17,0.01
2013-2-28,45.0,39.5,35.0,33.0,26.3,23.0,66,59,46,0.00,40.00,8,6,16,0.00
2013-3-1,41.0,36.9,33.0,29.0,26.2,23.0,78,66,57,0.00,40.00,6,4,12,0.00
2013-3-2,40.0,34.8,30.0,31.0,26.7,20.0,95,73,53,0.00,40.00,8,5,14,0.00
2013-3-3,42.0,32.8,28.0,18.0,16.2,14.0,64,51,34,0.00,40.00,9,7,17,0.00
2013-3-4,62.0,41.1,25.0,29.0,19.8,15.0,75,46,23,0.00,40.00,4,2,11,0.00
2013-3-5,62.0,46.7,37.0,55.0,37.3,26.0,97,70,58,0.00,40.00,10,4,22,0.47
2013-3-6,38.0,34.4,31.0,27.0,24.1,19.0,75,66,58,0.00,40.00,11,7,19,0.03
2013-3-7,61.0,41.5,29.0,31.0,27.5,25.0,87,62,27,0.00,40.00,6,3,15,0.00
2013-3-8,65.0,44.2,26.0,28.0,25.2,22.0,94,55,22,0.00,40.00,4,2,13,0.00
2013-3-9,63.0,50.2,36.0,30.0,25.4,20.0,55,39,26,0.00,40.00,4,2,7,0.00
2013-3-10,67.0,57.2,48.0,39.0,32.5,29.0,54,40,25,0.00,40.00,5,3,10,0.00
2013-3-11,61.0,54.6,53.0,55.0,49.5,40.0,100,83,60,0.00,40.00,5,3,12,1.29
2013-3-12,61.0,48.7,38.0,52.0,36.5,29.0,100,68,34,0.00,40.00,7,4,17,0.97
2013-3-13,52.0,43.0,34.0,30.0,24.1,18.0,75,50,27,0.00,40.00,10,5,19,0.00
2013-3-14,56.0,40.6,27.0,18.0,14.8,12.0,62,37,18,0.00,40.00,8,4,14,0.00
2013-3-15,72.0,53.3,35.0,41.0,33.3,22.0,83,51,28,0.00,40.00,9,4,16,0.00
2013-3-16,77.0,63.5,51.0,44.0,40.2,36.0,67,45,26,0.00,40.00,7,4,19,0.00
2013-3-17,72.0,61.7,50.0,52.0,45.8,40.0,74,56,42,0.00,40.00,5,3,10,0.00
2013-3-18,57.0,48.6,44.0,53.0,45.7,43.0,100,90,73,0.00,40.00,5,3,13,0.83
2013-3-19,64.0,51.3,42.0,45.0,31.0,16.0,100,55,23,0.00,40.00,8,4,15,0.76
2013-3-20,59.0,47.1,36.0,25.0,15.0,9.0,55,29,16,0.00,40.00,9,4,17,0.00
2013-3-21,47.0,38.5,28.0,27.0,12.1,3.0,60,37,19,0.00,40.00,8,6,17,0.00
2013-3-22,53.0,40.9,31.0,31.0,22.3,11.0,69,48,33,0.00,40.00,3,2,7,0.00
2013-3-23,53.0,46.2,40.0,49.0,41.8,32.0,99,86,59,0.00,40.00,3,2,7,0.66
2013-3-24,51.0,46.9,43.0,46.0,45.0,35.0,99,93,73,0.00,40.00,8,3,15,1.36
2013-3-25,41.0,36.4,31.0,31.0,23.7,20.0,74,60,47,0.00,40.00,10,7,20,0.12
2013-3-26,42.0,34.6,29.0,27.0,23.8,22.0,87,66,45,0.00,40.00,9,6,15,0.00
2013-3-27,55.0,38.4,27.0,24.0,21.4,18.0,85,56,23,0.00,40.00,8,5,14,0.00
2013-3-28,62.0,55.4,47.0,27.0,24.8,19.0,44,31,20,0.00,40.00,11,6,16,0.00
2013-3-29,65.0,48.9,32.0,34.0,28.3,24.0,81,49,25,0.00,40.00,5,2,10,0.00
2013-3-30,72.0,57.0,45.0,55.0,38.9,-99.9,99,57,30,0.00,40.00,4,2,17,0.11
2013-3-31,64.0,58.2,54.0,60.0,54.9,52.0,100,89,68,0.00,40.00,4,2,12,0.86
2013-4-1,71.0,59.8,51.0,56.0,45.4,35.0,100,66,28,0.00,40.00,7,4,16,0.07
2013-4-2,69.0,53.0,42.0,40.0,30.1,19.0,75,46,20,0.00,40.00,6,3,11,0.00
2013-4-3,61.0,52.0,45.0,44.0,29.6,23.0,97,45,27,0.00,40.00,5,3,9,0.22
2013-4-4,46.0,42.0,39.0,44.0,39.1,36.0,98,89,69,0.00,40.00,6,3,22,0.64
2013-4-5,68.0,53.2,40.0,45.0,38.6,32.0,99,64,28,0.00,40.00,8,4,12,0.02
2013-4-6,72.0,57.4,38.0,40.0,34.4,30.0,86,46,22,0.00,40.00,4,3,9,0.00
2013-4-7,75.0,60.1,45.0,47.0,40.7,34.0,71,51,33,0.00,40.00,3,2,7,0.00
2013-4-8,78.0,65.4,53.0,55.0,49.1,45.0,77,57,37,0.00,40.00,3,2,11,0.00
2013-4-9,83.0,67.0,52.0,57.0,53.1,50.0,93,64,38,0.00,40.00,4,2,10,0.00
2013-4-10,86.0,71.8,55.0,59.0,55.0,52.0,91,59,36,0.00,40.00,4,2,7,0.00
2013-4-11,78.0,67.8,57.0,68.0,57.9,53.0,98,73,51,0.00,40.00,7,3,17,1.25
2013-4-12,69.0,61.8,53.0,63.0,49.9,35.0,99,70,32,0.00,40.00,7,4,17,2.07
2013-4-13,78.0,62.6,50.0,38.0,33.2,27.0,64,38,16,0.00,40.00,7,5,12,0.02
2013-4-14,63.0,54.8,46.0,54.0,43.5,34.0,97,67,43,0.00,40.00,4,2,14,0.16
2013-4-15,74.0,61.7,54.0,59.0,55.8,53.0,100,83,56,0.00,40.00,3,2,6,0.10
2013-4-16,80.0,67.3,59.0,61.0,59.6,57.0,97,79,50,0.00,40.00,3,2,7,0.00
2013-4-17,87.0,71.5,63.0,63.0,61.4,60.0,92,73,43,0.00,40.00,5,2,11,0.05
2013-4-18,80.0,69.3,59.0,63.0,59.6,57.0,100,75,46,0.00,40.00,5,2,7,0.05
2013-4-19,69.0,59.1,45.0,65.0,54.6,36.0,95,85,71,0.00,40.00,6,4,16,0.68
2013-4-20,65.0,51.9,39.0,36.0,28.9,22.0,79,45,19,0.00,40.00,6,4,12,0.06
2013-4-21,70.0,55.2,40.0,40.0,34.6,31.0,75,50,27,0.00,40.00,4,2,14,0.00
2013-4-22,70.0,57.4,47.0,44.0,39.5,36.0,70,53,36,0.00,40.00,5,3,14,0.00
2013-4-23,76.0,58.2,40.0,49.0,40.6,34.0,89,55,30,0.00,40.00,3,2,9,0.00
2013-4-24,75.0,60.7,50.0,61.0,53.8,47.0,99,80,47,0.00,40.00,4,2,13,0.20
2013-4-25,74.0,57.6,41.0,56.0,38.3,15.0,98,61,11,0.00,40.00,5,3,11,0.16
2013-4-26,76.0,57.6,36.0,43.0,37.5,32.0,92,52,27,0.00,40.00,4,2,11,0.00
2013-4-27,64.0,56.7,53.0,54.0,50.6,-99.9,99,86,54,0.00,40.00,4,2,11,0.61
2013-4-28,55.0,54.0,52.0,55.0,53.8,52.0,100,99,97,0.00,40.00,3,2,8,2.65
2013-4-29,74.0,61.0,54.0,60.0,54.3,50.0,100,82,46,0.00,40.00,3,2,9,0.55
2013-4-30,79.0,66.4,49.0,63.0,55.8,49.0,99,72,44,0.00,40.00,3,2,6,0.00
2013-5-1,72.0,63.5,58.0,59.0,55.1,53.0,96,76,52,0.00,40.00,4,3,12,0.00
2013-5-2,65.0,60.3,58.0,58.0,55.4,53.0,89,84,74,0.00,40.00,4,3,13,0.00
2013-5-3,61.0,57.9,56.0,57.0,55.0,51.0,96,90,69,0.00,40.00,6,4,15,0.09
2013-5-4,57.0,52.1,48.0,54.0,50.2,46.0,99,93,72,0.00,40.00,4,4,16,2.09
2013-5-5,62.0,54.6,50.0,56.0,52.9,49.0,99,95,82,0.00,40.00,4,2,14,2.77
2013-5-6,55.0,49.9,44.0,52.0,48.5,44.0,99,95,78,0.00,40.00,3,2,6,0.56
2013-5-7,69.0,56.7,49.0,55.0,51.1,49.0,100,84,56,0.00,40.00,3,2,12,0.26
2013-5-8,76.0,63.0,51.0,58.0,54.2,50.0,99,76,45,0.00,40.00,4,2,15,0.02
2013-5-9,83.0,67.1,51.0,61.0,55.6,50.0,99,71,35,0.00,40.00,4,2,13,0.00
2013-5-10,79.0,67.1,54.0,62.0,58.4,53.0,99,76,55,0.00,40.00,3,1,10,0.00
2013-5-11,77.0,65.1,58.0,64.0,58.9,-99.9,98,84,57,0.00,40.00,4,2,11,0.08
2013-5-12,70.0,60.1,50.0,59.0,44.7,31.0,98,63,28,0.00,40.00,4,3,17,0.08
2013-5-13,71.0,55.0,38.0,41.0,35.5,29.0,92,52,25,0.00,40.00,4,3,12,0.01
2013-5-14,79.0,59.5,39.0,54.0,45.3,37.0,93,64,29,0.00,40.00,4,2,11,0.00
2013-5-15,86.0,70.5,57.0,59.0,54.4,52.0,87,61,32,0.00,40.00,4,2,12,0.00
2013-5-16,84.0,61.2,58.0,62.0,35.0,-99.9,90,73,47,0.00,40.00,3,2,7,0.00
2013-5-17,84.0,66.7,55.0,63.0,52.4,-99.9,98,75,43,0.00,40.00,2,1,5,0.00
2013-5-18,74.0,66.8,63.0,68.0,65.0,62.0,100,94,73,0.00,40.00,2,1,6,0.45
2013-5-19,67.0,65.0,63.0,67.0,64.9,63.0,100,100,97,0.00,40.00,3,2,9,5.35
2013-5-20,86.0,72.5,60.0,70.0,65.5,60.0,100,81,55,0.00,40.00,3,2,7,0.02
2013-5-21,89.0,76.1,65.0,71.0,68.2,63.0,100,79,48,0.00,40.00,3,2,7,0.00
2013-5-22,87.0,72.4,63.0,72.0,65.6,62.0,100,82,52,0.00,40.00,3,2,8,0.00
2013-5-23,83.0,72.8,65.0,67.0,61.5,52.0,99,71,45,0.00,40.00,4,2,16,0.00
2013-5-24,76.0,65.1,55.0,56.0,49.6,41.0,95,61,34,0.00,40.00,5,3,13,0.00
2013-5-25,79.0,62.9,44.0,50.0,44.2,40.0,93,55,27,0.00,40.00,3,2,13,0.00
2013-5-26,83.0,66.2,48.0,53.0,48.0,45.0,94,58,29,0.00,40.00,3,2,8,0.00
2013-5-27,87.0,70.3,55.0,61.0,56.2,51.0,86,64,37,0.00,40.00,3,2,7,0.00
2013-5-28,87.0,74.0,63.0,65.0,60.9,58.0,90,66,39,0.00,40.00,3,2,9,0.00
2013-5-29,85.0,70.8,59.0,65.0,62.0,58.0,98,76,50,0.00,40.00,3,2,10,0.00
2013-5-30,83.0,71.0,61.0,67.0,64.0,60.0,97,80,53,0.00,40.00,3,2,7,0.00
2013-5-31,87.0,73.6,64.0,68.0,64.9,63.0,96,76,51,0.00,40.00,3,2,7,0.00
2013-6-1,86.0,73.8,66.0,70.0,64.8,-99.9,94,78,52,0.00,40.00,3,1,8,0.00
2013-6-2,85.0,71.7,67.0,73.0,69.2,67.0,99,92,66,0.00,40.00,4,2,9,0.72
2013-6-3,85.0,72.6,64.0,73.0,66.6,64.0,100,84,53,0.00,40.00,3,2,10,0.50
2013-6-4,88.0,73.9,59.0,69.0,64.0,59.0,99,75,46,0.00,40.00,2,1,8,0.04
2013-6-5,85.0,72.8,65.0,71.0,67.6,65.0,99,85,62,0.00,40.00,4,2,8,1.27
2013-6-6,79.0,69.5,64.0,72.0,67.7,64.0,100,94,69,0.00,40.00,2,1,5,1.29
2013-6-7,86.0,72.3,66.0,70.0,67.8,66.0,100,88,53,0.00,40.00,4,2,12,0.16
2013-6-8,84.0,71.9,62.0,69.0,65.3,62.0,100,82,54,0.00,40.00,4,2,9,0.16
2013-6-9,87.0,71.7,65.0,72.0,68.6,65.0,100,91,59,0.00,40.00,3,2,7,0.47
2013-6-10,80.0,71.8,65.0,70.0,68.2,64.0,100,89,70,0.00,40.00,5,2,11,0.76
2013-6-11,88.0,77.4,70.0,74.0,71.0,69.0,98,82,58,0.00,40.00,4,3,15,0.15
2013-6-12,94.0,80.4,68.0,76.0,71.8,67.0,98,78,52,0.00,40.00,3,2,9,0.12
2013-6-13,89.0,78.3,70.0,74.0,71.4,69.0,99,81,54,0.00,40.00,10,3,20,0.53
2013-6-14,88.0,74.5,61.0,70.0,63.0,54.0,100,72,36,0.00,40.00,2,2,6,0.53
2013-6-15,87.0,72.5,61.0,64.0,61.1,57.0,91,70,43,0.00,40.00,2,1,5,0.00
2013-6-16,88.0,73.3,60.0,71.0,65.3,59.0,98,79,49,0.00,40.00,3,2,6,0.01
2013-6-17,85.0,71.5,67.0,73.0,68.8,66.0,99,92,61,0.00,40.00,3,2,8,1.00
2013-6-18,84.0,72.3,68.0,73.0,69.5,68.0,99,92,65,0.00,40.00,5,2,19,0.55
2013-6-19,83.0,73.2,66.0,69.0,67.7,66.0,99,84,61,0.00,40.00,3,1,9,0.10
2013-6-20,85.0,72.4,64.0,69.0,66.1,64.0,99,83,50,0.00,40.00,3,2,7,0.00
2013-6-22,86.0,80.0,69.0,67.0,63.7,60.0,88,59,43,0.00,40.00,3,2,6,0.00
2013-6-23,86.0,74.1,63.0,71.0,66.6,62.0,97,79,57,0.00,40.00,3,1,6,0.00
2013-6-24,85.0,76.0,69.0,72.0,70.0,68.0,99,83,62,0.00,40.00,3,1,8,0.00
2013-6-25,87.0,75.1,66.0,74.0,69.9,66.0,99,86,59,0.00,40.00,3,1,8,0.01
2013-6-26,88.0,76.5,67.0,77.0,71.5,67.0,99,86,59,0.00,40.00,3,2,10,0.03
2013-6-27,87.0,77.4,71.0,76.0,72.3,70.0,97,85,64,0.00,40.00,4,2,13,0.01
2013-6-28,92.0,78.8,69.0,75.0,70.4,68.0,99,79,48,0.00,40.00,4,2,13,0.29
2013-6-29,87.0,75.2,65.0,72.0,66.5,63.0,98,78,47,0.00,40.00,3,2,9,0.30
2013-6-30,88.0,73.1,60.0,70.0,64.1,59.0,98,77,44,0.00,40.00,3,2,7,0.01
2013-7-1,84.0,70.6,66.0,70.0,67.3,65.0,98,91,58,0.00,40.00,3,1,10,0.71
2013-7-2,86.0,74.0,67.0,73.0,69.1,67.0,99,86,55,0.00,40.00,2,1,5,0.04
2013-7-3,74.0,69.2,65.0,72.0,68.1,64.0,99,97,93,0.00,40.00,3,1,7,2.38
2013-7-4,76.0,69.9,66.0,74.0,69.3,66.0,99,98,93,0.00,40.00,3,1,6,0.66
2013-7-5,80.0,71.4,68.0,73.0,69.8,68.0,99,95,72,0.00,40.00,3,1,7,0.42
2013-7-6,81.0,72.7,67.0,76.0,70.9,67.0,99,94,77,0.00,40.00,3,1,7,0.82
2013-7-7,80.0,73.5,70.0,73.0,71.2,70.0,99,93,75,0.00,40.00,2,1,6,0.62
2013-7-8,90.0,75.5,71.0,74.0,69.5,-99.9,99,87,55,0.00,40.00,3,1,7,0.04
2013-7-9,89.0,75.4,69.0,76.0,71.4,69.0,99,89,58,0.00,40.00,3,1,7,0.04
2013-7-10,90.0,74.3,71.0,77.0,68.4,-99.9,99,88,57,0.00,40.00,8,2,14,0.41
2013-7-11,81.0,74.0,68.0,74.0,71.1,68.0,99,91,75,0.00,40.00,2,1,5,0.25
2013-7-12,89.0,75.0,68.0,75.0,70.7,66.0,99,88,58,0.00,40.00,4,1,9,0.40
2013-7-13,79.0,71.5,67.0,70.0,67.9,66.0,98,89,69,0.00,40.00,3,2,10,0.01
2013-7-14,80.0,73.0,69.0,76.0,71.0,68.0,99,94,82,0.00,40.00,4,2,10,0.20
2013-7-15,84.0,75.1,70.0,73.0,70.3,68.0,97,86,64,0.00,40.00,3,2,9,0.08
2013-7-16,89.0,83.9,73.0,72.0,70.3,68.0,95,65,51,0.00,40.00,2,1,7,0.00
2013-7-17,95.0,76.6,67.0,74.0,69.5,65.0,99,82,51,0.00,40.00,3,1,9,0.52
2013-7-18,90.0,78.2,67.0,75.0,71.0,67.0,99,81,54,0.00,40.00,3,1,5,0.65
2013-7-19,91.0,78.9,69.0,76.0,71.8,68.0,99,81,55,0.00,40.00,3,1,8,0.00
2013-7-20,88.0,73.4,68.0,75.0,68.1,-99.9,98,87,58,0.00,40.00,3,2,8,0.29
2013-7-21,89.0,75.6,67.0,76.0,70.2,67.0,99,85,59,0.00,40.00,3,1,7,0.30
2013-7-22,84.0,73.8,69.0,74.0,70.9,69.0,99,91,72,0.00,40.00,3,2,8,0.57
2013-7-23,82.0,73.9,68.0,72.0,70.1,67.0,98,89,71,0.00,40.00,4,2,12,0.53
2013-7-24,87.0,76.6,69.0,77.0,71.0,68.0,98,84,61,0.00,40.00,4,2,11,0.01
2013-7-25,89.0,75.6,66.0,73.0,68.3,65.0,98,81,47,0.00,40.00,5,2,9,0.12
2013-7-26,87.0,72.3,65.0,75.0,68.1,64.0,98,88,61,0.00,40.00,3,2,8,0.51
2013-7-27,80.0,73.1,67.0,72.0,69.1,66.0,99,88,71,0.00,40.00,3,1,7,0.51
2013-7-28,86.0,74.3,65.0,73.0,68.3,64.0,98,84,54,0.00,40.00,3,1,8,0.00
2013-7-29,87.0,71.9,64.0,68.0,64.2,58.0,98,80,38,0.00,40.00,3,1,10,0.00
2013-7-30,89.0,73.7,58.0,71.0,64.3,57.0,98,76,47,0.00,40.00,2,1,6,0.00
2013-7-31,79.0,73.3,70.0,72.0,70.1,68.0,97,90,75,0.00,40.00,2,1,4,0.03
2013-8-1,87.0,75.7,67.0,73.0,70.0,66.0,99,84,63,0.00,40.00,3,2,13,0.49
2013-8-2,89.0,75.0,64.0,72.0,67.1,62.0,98,80,44,0.00,40.00,2,1,6,0.01
2013-8-3,84.0,74.6,63.0,73.0,68.2,62.0,98,83,60,0.00,40.00,3,1,9,0.00
2013-8-4,88.0,77.5,70.0,73.0,69.3,64.0,97,78,56,0.00,40.00,4,2,7,0.00
2013-8-5,90.0,73.8,63.0,73.0,66.5,62.0,97,80,49,0.00,40.00,3,1,7,0.00
2013-8-6,86.0,76.5,69.0,74.0,70.0,66.0,98,82,54,0.00,40.00,3,1,7,0.00
2013-8-7,78.0,72.4,69.0,75.0,71.5,69.0,99,97,91,0.00,40.00,4,1,9,8.62
2013-8-8,85.0,75.0,71.0,76.0,72.8,71.0,99,93,70,0.00,40.00,3,1,5,2.13
2013-8-9,90.0,78.2,71.0,77.0,73.5,71.0,100,87,61,0.00,40.00,3,1,7,0.11
2013-8-10,90.0,77.8,71.0,75.0,73.1,71.0,99,87,61,0.00,40.00,3,2,11,0.03
2013-8-11,89.0,76.7,68.0,76.0,71.9,68.0,100,86,57,0.00,40.00,3,1,10,0.04
2013-8-12,90.0,75.3,69.0,79.0,71.7,69.0,99,90,53,0.00,40.00,3,1,8,0.04
2013-8-13,85.0,75.8,71.0,74.0,69.6,-99.9,99,85,62,0.00,40.00,4,2,10,0.01
2013-8-14,80.0,73.4,68.0,73.0,69.7,67.0,97,89,70,0.00,40.00,2,1,6,0.00
2013-8-15,73.0,63.7,65.0,67.0,50.5,-99.9,93,75,62,0.00,40.00,4,3,12,0.00
2013-8-16,69.0,64.3,62.0,63.0,56.5,-99.9,91,81,73,0.00,40.00,4,2,10,0.00
2013-8-17,66.0,63.4,63.0,64.0,59.1,-99.9,99,89,80,0.00,40.00,3,2,9,0.19
2013-8-18,73.0,67.6,64.0,70.0,66.7,64.0,99,96,86,0.00,40.00,2,1,6,0.31
2013-8-19,80.0,67.2,66.0,73.0,58.0,-99.9,99,92,80,0.00,40.00,2,2,7,2.03
2013-8-20,83.0,71.8,67.0,74.0,67.8,-99.9,100,91,75,0.00,40.00,2,1,6,0.01
2013-8-21,81.0,72.9,70.0,74.0,71.2,70.0,100,95,73,0.00,40.00,3,1,5,0.42
2013-8-22,89.0,73.9,68.0,75.0,70.8,68.0,100,91,62,0.00,40.00,2,1,6,1.61
2013-8-23,89.0,75.6,65.0,75.0,69.5,65.0,100,84,53,0.00,40.00,3,1,9,0.52
2013-8-24,82.0,72.0,66.0,69.0,65.1,-99.9,100,83,63,0.00,40.00,4,2,10,0.01
2013-8-25,81.0,70.5,60.0,67.0,62.4,59.0,98,78,51,0.00,40.00,3,2,7,0.00
2013-8-26,84.0,70.7,59.0,66.0,63.1,59.0,99,79,47,0.00,40.00,3,1,5,0.00
2013-8-27,87.0,69.8,60.0,70.0,64.2,60.0,100,85,47,0.00,40.00,1,0,1,0.00
2013-8-28,90.0,83.3,73.0,73.0,71.0,67.0,98,69,48,0.00,40.00,3,2,7,0.00
2013-8-29,91.0,78.4,68.0,76.0,72.0,68.0,99,83,57,0.00,40.00,4,2,7,0.00
2013-8-30,87.0,76.4,71.0,76.0,73.5,71.0,100,92,66,0.00,40.00,2,1,6,0.00
2013-8-31,91.0,75.4,71.0,80.0,71.3,-99.9,100,91,54,0.00,40.00,2,1,6,0.24
2013-9-1,84.0,74.6,68.0,78.0,72.4,68.0,100,94,71,0.00,40.00,4,2,10,0.02
2013-9-2,80.0,72.9,69.0,76.0,72.2,69.0,100,98,89,0.00,40.00,3,2,9,0.01
2013-9-3,87.0,76.0,70.0,78.0,71.4,67.0,100,88,52,0.00,40.00,3,2,7,0.01
2013-9-4,89.0,73.0,63.0,74.0,67.3,63.0,100,85,51,0.00,40.00,2,1,6,0.00
2013-9-5,87.0,73.8,64.0,73.0,68.0,64.0,100,85,49,0.00,40.00,2,1,4,0.01
2013-9-6,84.0,72.1,63.0,70.0,66.2,63.0,100,84,52,0.00,40.00,4,1,9,0.01
2013-9-7,86.0,71.2,62.0,72.0,65.1,-99.9,100,86,51,0.00,40.00,2,1,6,0.00
2013-9-8,89.0,73.7,62.0,71.0,66.7,62.0,100,82,47,0.00,40.00,4,1,9,0.00
2013-9-9,90.0,75.3,66.0,72.0,68.7,66.0,100,83,52,0.00,40.00,3,2,6,0.00
2013-9-10,88.0,75.4,67.0,73.0,69.9,67.0,100,86,54,0.00,40.00,3,1,6,0.00
2013-9-11,91.0,74.4,63.0,74.0,67.9,63.0,100,84,45,0.00,40.00,2,1,7,0.00
2013-9-12,89.0,72.8,65.0,75.0,69.3,65.0,100,91,54,0.00,40.00,3,1,7,0.82
2013-9-13,85.0,72.0,62.0,73.0,64.5,55.0,100,80,45,0.00,40.00,4,2,8,0.05
2013-9-14,80.0,62.8,51.0,63.0,54.7,-99.9,100,81,46,0.00,40.00,3,1,9,0.00
2013-9-15,83.0,67.0,59.0,68.0,63.4,59.0,100,90,59,0.00,40.00,2,1,5,0.00
2013-9-16,86.0,72.5,63.0,71.0,64.4,60.0,100,79,45,0.00,40.00,2,1,7,0.00
2013-9-17,76.0,67.9,63.0,66.0,61.2,56.0,100,80,56,0.00,40.00,4,2,11,0.00
2013-9-18,64.0,63.0,61.0,62.0,58.5,57.0,100,86,82,0.00,40.00,2,2,6,0.00
2013-9-19,84.0,68.3,57.0,65.0,61.7,57.0,100,83,49,0.00,40.00,2,1,6,0.23
2013-9-20,86.0,69.5,59.0,68.0,63.4,59.0,100,84,46,0.00,40.00,3,1,6,0.23
2013-9-21,69.0,65.2,62.0,69.0,63.8,-99.9,100,97,96,0.00,40.00,3,1,7,0.96
2013-9-22,80.0,64.4,55.0,62.0,58.9,55.0,100,85,44,0.00,40.00,3,1,7,0.01
2013-9-23,79.0,64.9,57.0,62.0,59.0,56.0,100,84,49,0.00,40.00,3,1,9,0.00
2013-9-24,69.0,64.3,59.0,64.0,61.5,58.0,98,91,75,0.00,40.00,3,1,7,0.00
2013-9-25,64.0,62.8,61.0,63.0,62.5,61.0,100,99,96,0.00,40.00,2,1,7,1.58
2013-9-26,78.0,65.8,59.0,66.0,62.1,59.0,100,89,58,0.00,40.00,2,1,5,0.01
2013-9-27,79.0,65.6,56.0,64.0,59.2,55.0,100,83,50,0.00,40.00,3,1,7,0.00
2013-9-28,75.0,62.5,55.0,60.0,55.4,-99.9,100,82,53,0.00,40.00,3,1,8,0.00
2013-9-29,73.0,61.6,52.0,59.0,55.9,52.0,100,83,55,0.00,40.00,3,1,6,0.00
2013-9-30,76.0,61.8,53.0,59.0,56.4,53.0,100,85,52,0.00,40.00,3,1,5,0.00
2013-10-1,67.0,63.9,56.0,63.0,61.7,56.0,99,94,82,0.00,40.00,1,0,3,0.00
2013-10-2,83.0,66.1,54.0,67.0,61.2,54.0,100,86,53,0.00,40.00,2,0,4,0.00
2013-10-3,84.0,69.1,60.0,65.0,62.6,60.0,100,83,45,0.00,40.00,2,0,5,0.00
2013-10-4,85.0,67.9,56.0,66.0,62.0,56.0,100,85,46,0.00,40.00,3,1,6,0.00
2013-10-5,86.0,70.9,58.0,68.0,63.6,58.0,100,81,47,0.00,40.00,2,1,6,0.00
2013-10-6,82.0,68.2,61.0,67.0,64.0,60.0,100,88,57,0.00,40.00,2,1,5,1.40
2013-10-7,76.0,64.0,55.0,64.0,59.6,54.0,100,87,52,0.00,40.00,3,2,7,1.70
2013-10-8,74.0,62.0,53.0,56.0,54.2,50.0,99,79,48,0.00,40.00,4,2,10,0.05
2013-10-9,75.0,61.5,50.0,56.0,51.1,44.0,97,72,40,0.00,40.00,3,2,9,0.00
2013-10-10,78.0,64.2,50.0,58.0,54.7,50.0,100,75,47,0.00,40.00,4,2,10,0.00
2013-10-11,81.0,62.1,49.0,61.0,53.4,49.0,99,78,36,0.00,40.00,4,1,7,0.00
2013-10-12,81.0,63.4,50.0,61.0,54.5,-99.9,100,78,45,0.00,40.00,3,1,7,0.00
2013-10-13,81.0,64.5,53.0,63.0,58.0,52.0,99,82,49,0.00,40.00,3,1,5,0.00
2013-10-14,74.0,65.7,58.0,63.0,61.2,58.0,100,86,68,0.00,40.00,2,1,7,0.00
2013-10-15,66.0,62.2,58.0,61.0,57.9,55.0,98,87,72,0.00,40.00,3,1,7,0.00
2013-10-16,72.0,63.5,56.0,63.0,58.9,56.0,99,86,63,0.00,40.00,2,1,5,0.01
2013-10-17,67.0,63.4,59.0,66.0,63.0,59.0,100,99,97,0.00,40.00,2,1,8,0.58
2013-10-18,71.0,59.1,52.0,58.0,54.5,52.0,100,87,55,0.00,40.00,3,1,6,0.01
2013-10-19,62.0,55.5,53.0,55.0,51.7,-99.9,100,90,76,0.00,40.00,3,1,11,0.01
2013-10-20,71.0,51.9,41.0,51.0,43.3,34.0,100,79,29,0.00,40.00,2,1,6,0.01
2013-10-21,70.0,54.0,41.0,57.0,49.7,41.0,99,87,60,0.00,40.00,2,1,6,0.01
2013-10-22,71.0,59.4,53.0,58.0,52.3,46.0,100,81,42,0.00,40.00,3,1,10,0.02
2013-10-23,60.0,49.8,39.0,50.0,41.7,34.0,99,77,40,0.00,40.00,7,3,15,0.01
2013-10-24,63.0,46.1,34.0,41.0,36.9,33.0,96,74,36,0.00,40.00,4,2,12,0.00
2013-10-25,59.0,42.6,32.0,40.0,29.6,21.0,95,66,25,0.00,40.00,5,2,8,0.00
2013-10-26,60.0,41.0,29.0,40.0,30.5,-99.9,96,72,35,0.00,40.00,3,2,9,0.00
2013-10-27,66.0,51.9,39.0,52.0,43.4,33.0,93,74,55,0.00,40.00,4,2,7,0.00
2013-10-28,65.0,55.5,51.0,58.0,51.6,-99.9,100,91,69,0.00,40.00,2,1,7,0.21
2013-10-29,71.0,58.9,49.0,58.0,54.2,49.0,100,86,60,0.00,40.00,2,1,5,0.02
2013-10-30,77.0,62.4,53.0,59.0,56.0,53.0,99,82,50,0.00,40.00,3,1,9,0.00
2013-10-31,73.0,64.0,55.0,62.0,58.8,54.0,99,84,68,0.00,40.00,4,2,9,0.00
2013-11-1,76.0,64.9,54.0,64.0,55.9,45.0,99,77,38,0.00,40.00,4,2,13,0.36
2013-11-2,66.0,53.2,45.0,48.0,40.7,-99.9,94,67,38,0.00,40.00,5,3,12,0.01
2013-11-3,67.0,49.9,39.0,40.0,36.8,29.0,94,66,26,0.00,40.00,4,2,6,0.00
2013-11-4,63.0,48.4,39.0,38.0,36.3,34.0,92,66,38,0.00,40.00,4,2,11,0.00
2013-11-5,66.0,49.9,41.0,41.0,33.6,30.0,81,57,29,0.00,40.00,4,2,11,0.00
2013-11-6,72.0,59.1,49.0,55.0,51.5,43.0,93,77,56,0.00,40.00,3,2,9,0.00
2013-11-7,65.0,54.6,41.0,59.0,45.6,33.0,99,74,36,0.00,40.00,8,3,15,0.14
2013-11-8,63.0,46.7,34.0,33.0,25.8,13.0,82,50,15,0.00,40.00,4,2,9,0.01
2013-11-9,58.0,44.2,35.0,37.0,28.8,-99.9,77,58,34,0.00,40.00,2,2,5,0.00
2013-11-10,72.0,56.3,41.0,40.0,32.8,26.0,87,46,20,0.00,40.00,6,3,11,0.00
2013-11-11,67.0,50.3,36.0,35.0,30.8,27.0,79,51,26,0.00,40.00,3,1,9,0.00
2013-11-12,61.0,44.8,30.0,39.0,29.1,14.0,85,56,41,0.00,40.00,10,5,16,0.00
2013-11-13,54.0,35.9,20.0,18.0,13.1,7.0,86,45,15,0.00,40.00,4,2,10,0.00
2013-11-14,61.0,40.6,22.0,21.0,17.7,14.0,86,46,18,0.00,40.00,3,2,6,0.00
2013-11-15,49.0,43.7,34.0,49.0,35.6,18.0,100,76,45,0.00,40.00,3,2,6,0.23
2013-11-16,58.0,52.7,49.0,54.0,50.3,-99.9,100,94,87,0.00,40.00,2,1,6,0.14
2013-11-17,59.0,57.6,56.0,59.0,56.7,54.0,100,97,92,0.00,40.00,4,1,7,0.59
2013-11-18,68.0,59.5,49.0,61.0,45.2,31.0,100,65,27,0.00,40.00,8,4,12,0.44
2013-11-19,60.0,49.6,38.0,33.0,29.8,25.0,62,47,32,0.00,40.00,8,3,14,0.01
2013-11-20,58.0,46.4,39.0,30.0,27.7,25.0,60,49,33,0.00,40.00,5,4,13,0.00
2013-11-21,51.0,48.4,44.0,49.0,43.2,31.0,99,84,52,0.00,40.00,5,3,11,0.03
2013-11-22,57.0,53.4,49.0,56.0,53.2,49.0,100,99,94,0.00,40.00,2,1,6,0.10
2013-11-23,58.0,51.7,39.0,57.0,43.3,-99.9,100,77,51,0.00,40.00,8,4,15,0.08
2013-11-24,50.0,36.6,28.0,22.0,13.3,5.0,56,40,16,0.00,40.00,7,3,12,0.00
2013-11-25,42.0,34.7,28.0,30.0,12.4,6.0,90,41,23,0.00,40.00,4,2,14,0.04
2013-11-26,48.0,41.9,32.0,48.0,41.8,31.0,100,99,95,0.00,40.00,4,2,11,2.80
2013-11-27,44.0,34.3,25.0,44.0,25.9,14.0,100,73,53,0.00,40.00,14,7,23,0.15
2013-11-28,51.0,32.0,19.0,24.0,18.3,15.0,91,62,28,0.00,40.00,3,1,7,0.01
2013-11-29,64.0,38.3,22.0,29.0,23.4,18.0,95,63,20,0.00,40.00,3,1,6,0.00
2013-11-30,54.0,40.0,34.0,26.0,21.9,-99.9,64,51,31,0.00,40.00,5,2,12,0.00
2013-12-1,58.0,45.0,37.0,38.0,31.2,23.0,72,59,45,0.00,40.00,3,2,9,0.00
2013-12-2,49.0,45.7,41.0,48.0,43.7,35.0,100,93,73,0.00,40.00,3,1,6,0.21
2013-12-3,52.0,49.9,48.0,52.0,49.9,48.0,100,100,100,0.00,40.00,2,1,5,0.35
2013-12-4,59.0,55.7,51.0,59.0,55.7,51.0,100,100,100,0.00,40.00,2,1,5,0.08
2013-12-5,71.0,64.2,59.0,68.0,63.7,59.0,100,98,88,0.00,40.00,3,2,9,1.04
2013-12-6,75.0,67.3,59.0,67.0,64.9,58.0,100,92,75,0.00,40.00,5,3,21,0.91
2013-12-7,58.0,47.4,42.0,58.0,43.3,-99.9,100,89,68,0.00,40.00,5,3,14,0.40
2013-12-8,49.0,42.5,38.0,46.0,41.7,38.0,99,97,88,0.00,40.00,4,3,12,0.61
2013-12-9,48.0,42.7,38.0,48.0,42.7,37.0,100,99,98,0.00,40.00,3,2,7,1.82
2013-12-10,48.0,43.4,29.0,48.0,35.8,23.0,100,77,44,0.00,40.00,9,4,20,0.23
2013-12-11,56.0,37.1,22.0,28.0,22.4,19.0,97,62,27,0.00,40.00,5,2,7,0.11
2013-12-12,48.0,34.4,29.0,22.0,17.0,3.0,66,51,15,0.00,40.00,5,3,10,0.00
2013-12-13,52.0,37.1,22.0,21.0,17.7,13.0,86,49,26,0.00,40.00,2,0,6,0.00
2013-12-14,47.0,43.6,42.0,47.0,36.8,-99.9,100,82,46,0.00,40.00,3,1,9,1.35
2013-12-15,47.0,38.7,29.0,47.0,33.1,26.0,100,81,62,0.00,40.00,9,5,13,0.02
2013-12-16,54.0,37.8,27.0,32.0,27.4,25.0,96,70,33,0.00,40.00,6,3,16,0.00
2013-12-17,59.0,46.4,35.0,34.0,31.3,28.0,77,57,38,0.00,40.00,8,4,19,0.00
2013-12-18,56.0,41.3,30.0,24.0,18.0,8.0,69,42,20,0.00,40.00,6,3,14,0.00
2013-12-19,65.0,42.5,26.0,25.0,21.4,17.0,81,48,18,0.00,40.00,3,2,5,0.00
2013-12-20,59.0,47.6,35.0,47.0,35.8,24.0,80,64,50,0.00,40.00,3,2,6,0.00
2013-12-21,65.0,55.6,52.0,63.0,52.6,-99.9,100,92,82,0.00,40.00,4,2,6,0.03
2013-12-22,66.0,59.6,56.0,64.0,58.8,56.0,100,98,90,0.00,40.00,5,2,8,3.94
2013-12-23,56.0,48.6,35.0,56.0,45.5,30.0,100,89,70,0.00,40.00,6,4,13,1.14
2013-12-24,40.0,32.1,25.0,30.0,21.6,14.0,95,68,39,0.00,40.00,7,4,13,0.01
2013-12-25,45.0,30.9,20.0,19.0,17.2,12.0,90,59,33,0.00,40.00,4,1,11,0.00
2013-12-26,57.0,36.9,25.0,27.0,23.2,19.0,91,61,24,0.00,40.00,4,1,9,0.00
2013-12-27,54.0,37.8,26.0,25.0,22.7,18.0,89,58,27,0.00,40.00,3,2,8,0.00
2013-12-28,44.0,35.8,28.0,38.0,28.4,-99.9,97,78,55,0.00,40.00,4,2,12,0.55
2013-12-29,51.0,43.4,38.0,44.0,41.0,37.0,100,92,75,0.00,40.00,6,3,14,0.79
2013-12-30,48.0,41.9,39.0,42.0,38.2,36.0,97,87,72,0.00,40.00,5,3,11,0.01
2013-12-31,47.0,38.0,32.0,36.0,27.5,16.0,93,69,29,0.00,40.00,8,3,12,0.00
2014-1-1,51.0,38.1,30.0,33.0,26.9,22.0,83,65,43,0.00,40.00,2,0,6,0.00
2014-1-2,46.0,38.5,23.0,45.0,33.8,16.0,99,84,65,0.00,40.00,11,4,21,0.46